This is the latest recevied weather packets stored in our database for station/object SP4MAZ-13. If no packets are shown the sender has not sent any weather packets the latest 10 day(s).
| Time | Temp. | Humidity | Pressure | Rain* | Wind** | Luminosity | Snow |
|---|---|---|---|---|---|---|---|
| 1777832840 | 13.33° C | 55% | 2147.4 hPa | - | - | - | - |
| 1777832536 | 13.33° C | 52% | 2147.4 hPa | - | - | - | - |
| 1777832233 | 14.44° C | 51% | 2147.4 hPa | - | - | - | - |
| 1777831929 | 15° C | 48% | 2147.4 hPa | - | - | - | - |
| 1777831019 | 16.11° C | 38% | 2147.4 hPa | - | - | - | - |
| 1777830109 | 17.22° C | 37% | 2147.4 hPa | - | - | - | - |
| 1777829805 | 18.33° C | 37% | 2147.4 hPa | - | - | - | - |
| 1777828894 | 19.44° C | 33% | 2147.4 hPa | - | - | - | - |
| 1777827984 | 21.11° C | 29% | 2147.4 hPa | - | - | - | - |
| 1777827680 | 21.67° C | 29% | 2147.4 hPa | - | - | - | - |
| 1777827377 | 22.22° C | 27% | 2147.4 hPa | - | - | - | - |
| 1777827074 | 22.22° C | 27% | 2147.4 hPa | - | - | - | - |
| 1777826770 | 22.22° C | 27% | 2147.4 hPa | - | - | - | - |
| 1777825560 | 23.89° C | 22% | 2147.4 hPa | - | - | - | - |
| 1777824952 | 23.89° C | 23% | 2147.4 hPa | - | - | - | - |
| 1777824345 | 25° C | 21% | 2147.4 hPa | - | - | - | - |
| 1777824041 | 25.56° C | 18% | 2147.4 hPa | - | - | - | - |
| 1777821614 | 27.22° C | 18% | 2147.4 hPa | - | - | - | - |
| 1777821007 | 26.67° C | 16% | 2147.4 hPa | - | - | - | - |
| 1777817975 | 27.78° C | 17% | 2147.4 hPa | - | - | - | - |
| 1777815550 | 27.22° C | 19% | 2147.4 hPa | - | - | - | - |
| 1777814943 | 26.67° C | 20% | 2147.4 hPa | - | - | - | - |
| 1777811310 | 26.67° C | 21% | 2147.4 hPa | - | - | - | - |
| 1777811007 | 26.11° C | 24% | 2147.4 hPa | - | - | - | - |
| 1777810706 | 26.11° C | 22% | 2147.4 hPa | - | - | - | - |
* Rain since midnight (hover to see other rain measurements)
** Current wind speed in m/s (hover to see current wind gust speed)